Voltar ao catálogo

DGS 2-03

AtivoCiênciaSSO
NORAD 65262·PAYLOAD·🇨🇳 China
Este nome de satélite ainda não foi confirmado por fontes oficiais.

Lançado Aug 19, 2025 de Jiuquan Satellite Launch Center

Loading…

Próximas Passagens (próximas 24 horas)

TLE

AtualizadoSource: Space-Track

Época: Sep 14, 2026, 14:01 UTC

1 65262U 25180D   26257.58427956  .00003483  00000-0  18435-3 0  9997
2 65262  97.5376  24.0322 0014239  16.8887 343.2817 15.16026173 59206

Acompanhe DGS 2-03 em tempo real com AllMySat

Download on the App Store